User: anonymous   Login
Location: Corona
(40.7470°N, 73.8601°W)
Time: 01:18:42
(UTC+00:00)
Language:

HJ-1C - Orbit

View from above orbital plane
View from above orbital plane
View from above satellite
View from above satellite

Ground track
Ground track

The orbit data is extracted from the following two-line orbital elements,

1 38997U 12064A   19324.56059015  .00001541  00000-0  38613-4 0  9995
2 38997  97.1759 353.4761 0011435  56.3927  95.5869 15.41544542393441
Epoch (UTC): 20 November 2019 13:27:14
Eccentricity: 0.0011435
inclination: 97.1759°
perigee height: 434 km
apogee height: 449 km
right ascension of ascending node: 353.4761°
argument of perigee: 56.3927°
revolutions per day: 15.41544542
mean anomaly at epoch: 95.5869°
orbit number at epoch: 39344

The dashed part of the orbit path shows where the satellite is in the earth's shadow,  

DLR